�ϑ��N����,2022/9/28,,,
�ϑ���,�����W�C,,,
�ϑ��n�_,5,,,
���x�v�ԍ�,A033,,,
,,,,
����,�C��,����,����,���l
9:30:00,-999,-999,-999,
9:31:00,-999,-999,-999,
9:32:00,-999,-999,-999,
9:33:00,25.5,0,0,
9:34:00,25.4,0,0,
9:35:00,25.1,0,0,
9:36:00,25.1,0,0,
9:37:00,25,0,0,
9:38:00,24.9,6,0,
9:39:00,25,8,2.5,
9:40:00,25,8,0,
9:41:00,25,8,0,
9:42:00,25,8,1,
9:43:00,25,8,1,
9:44:00,25,8,0,
9:45:00,25.5,8,1.5,����������
9:46:00,25.8,8,0.5,����������
9:47:00,25.8,8,0,����������
9:48:00,25.8,8,1,����������
9:49:00,25.8,8,0,����������
9:50:00,25.9,8,0,����������
9:51:00,26,8,0,����������
9:52:00,26,8,0,����������
9:53:00,26,8,0,����������
9:54:00,26.1,8,2.5,����������
9:55:00,26.1,0,0,����������
9:56:00,26.5,1,1.5,����������
9:57:00,26.7,1,2.5,����������
9:58:00,27.1,1,0,����������
9:59:00,27,1,0,����������
10:00:00,26.5,1,0,
10:01:00,25.9,1,0.5,
10:02:00,25.6,1,0.5,
10:03:00,25.5,0,0,
10:04:00,25.7,1,1.5,
10:05:00,26,1,0.5,����������
10:06:00,26.1,1,0,����������
10:07:00,26,1,0,����������
10:08:00,25.8,5,2.5,
10:09:00,25.8,0,0,
10:10:00,25.8,2,2.5,
10:11:00,26,1,1,
10:12:00,26.1,0,0,
10:13:00,26.3,1,0.5,
10:14:00,26.4,1,3,
10:15:00,26,4,0.5,
10:16:00,26.1,1,2.5,
10:17:00,26.1,1,0,
10:18:00,26.1,1,0,
10:19:00,26.2,1,0.5,
10:20:00,26.1,1,0.5,
10:21:00,26.5,1,0.5,
10:22:00,26.4,1,0.5,
10:23:00,26.2,1,1.5,
10:24:00,26.2,1,0,
10:25:00,26.4,1,1.5,
10:26:00,26,1,1.5,
10:27:00,26.1,1,0,
10:28:00,26.5,1,0.5,
10:29:00,26.8,1,2.5,
10:30:00,26.8,1,0,
10:31:00,26.9,1,0,
10:32:00,26.8,1,0,
10:33:00,26.7,1,2.5,������
10:34:00,26.8,1,2.5,������
10:35:00,26.5,0,0,������
10:36:00,26.5,1,3,������
10:37:00,26.5,0,0,������
10:38:00,26.3,1,0.5,������
10:39:00,26.1,0,0,������
10:40:00,26,0,0,������
10:41:00,26.5,0,0,������
10:42:00,26.6,0,0,������
10:43:00,26.9,1,0.5,������
10:44:00,27,1,1,������
10:45:00,26.9,0,0,������
10:46:00,26.7,0,0,������
10:47:00,26.6,0,0,������
10:48:00,26.8,0,0,������
10:49:00,26.6,1,3,������
10:50:00,26.5,0,0,������
10:51:00,26.5,0,0,������
10:52:00,26.7,1,0,������
10:53:00,26.8,0,0,������
10:54:00,26.7,0,0,������
10:55:00,26.8,0,0,������
10:56:00,26.5,0,0,������
10:57:00,26.2,0,0,������
10:58:00,26.1,0,0,������
10:59:00,26,0,0,������
11:00:00,26.1,5,1.5,�_�z��������
11:01:00,26.2,0,0,���܂�
11:02:00,26.8,5,1,���܂�
11:03:00,27,5,2.5,��܂�
11:04:00,27,5,0,
11:05:00,27.1,5,2,
11:06:00,26.8,0,0,
11:07:00,26.5,0,0,
11:08:00,26.1,0,0,
11:09:00,26.1,0,0,
11:10:00,26.2,5,0,
11:11:00,26.3,5,0,
11:12:00,26.2,1,0,
11:13:00,26.5,1,2,
11:14:00,26.5,1,1,����������
11:15:00,26.5,0,0,
11:16:00,26.6,7,1,����������
11:17:00,26.8,6,0,
11:18:00,26.9,6,0,
11:19:00,26.6,6,0,�܂�
11:20:00,26.5,0,0,�܂�
11:21:00,26.7,0,0,�܂�
11:22:00,26.5,0,0,�܂�
11:23:00,26.1,6,2,�܂�
11:24:00,26.2,0,0,�܂�
11:25:00,26.2,0,0,�܂�
11:26:00,26.1,0,0,�܂�
11:27:00,26.1,0,0,�܂�
11:28:00,26.2,0,0,�܂�
11:29:00,26.3,0,0,�܂�
11:30:00,26.5,6,0,�܂�
